Regional Weather Roundup
Issued by NWS Cleveland, OH

Home | Current Version | Previous Version | Graphics & Text | Print | Product List | Glossary On
Versions: 1 2 3 4 5 6 7 8 9 10 11 12 13 14 15 16 17 18 19 20 21 22 23 24 25 26 27 28 29 30 31 32 33 34 35 36 37 38 39 40 41 42 43 44 45 46 47 48 49 50
000
ASUS41 KCLE 172110
RWRCLE
OHIO REGIONAL WEATHER ROUNDUP
NATIONAL WEATHER SERVICE CLEVELAND, OH
500 PM EDT TUE OCT 17 2017

NOTE: "FAIR" INDICATES FEW OR NO CLOUDS BELOW 12,000 FEET WITH NO
SIGNIFICANT WEATHER AND/OR OBSTRUCTIONS TO VISIBILITY.

OHZ001>008-015>018-024>027-034-035-043-044-172200-
   NORTHWEST OHIO

CITY           SKY/WX    TMP DP  RH WIND       PRES   REMARKS
DEFIANCE       SUNNY     67  37  33 SW10G18   30.19F
FINDLAY        SUNNY     67  38  34 SW16      30.21F
TOLEDO EXPRESS SUNNY     68  41  37 SW16G24   30.17F
TOLEDO EXEC    SUNNY     68  40  35 SW20G28   30.18F
LIMA           SUNNY     65  39  38 SW13      30.23F HAZE
$$

OHZ009>014-019>023-028>033-038-089-172200-
   NORTHEAST OHIO

CITY           SKY/WX    TMP DP  RH WIND       PRES   REMARKS
CLE-HOPKINS    MOSUNNY   67  40  37 SW15      30.22F
CLE-LAKEFRONT  SUNNY     66  39  37 S14G21    30.18F
CUY CO. ARPT   MOSUNNY   66  41  39 SW16      30.21F
LORAIN-ELYRIA  SUNNY     66  35  31 SW14      30.21F
ASHTABULA      SUNNY     64  38  38 SW13      30.20F
AKRON-CANTON   MOSUNNY   65  38  36 SW14      30.23F
WOOSTER        SUNNY     64  37  36 SW10      30.23F
MANSFIELD      SUNNY     64  37  36 SW13G22   30.23F
YOUNGSTOWN     MOSUNNY   63  38  39 W9        30.22F
$$

OHZ042-051>053-060>062-070>072-077>081-172200-
  SOUTHWEST OHIO

CITY           SKY/WX    TMP DP  RH WIND       PRES   REMARKS
CINC-COVINGTON SUNNY     65  40  39 VRB5      30.27S
CINC-LUNKEN    SUNNY     66  43  43 SW9       30.27F
HAMILTON       SUNNY     67  40  37 VRB3      30.27F
DAYTON         MOSUNNY   64  41  42 SW8       30.26F
WRIGHT-PAT AFB SUNNY     65  34  31 SW9       30.25F
DAYTON GENERAL SUNNY     64  37  36 SW9       30.26F
WILMINGTON     SUNNY     63  41  44 SW8       30.26F
$$

OHZ036-037-039>041-045>050-054>059-063>069-073>076-082>088-172200-
  CENTRAL AND SOUTHEAST OHIO

CITY           SKY/WX    TMP DP  RH WIND       PRES   REMARKS
COLUMBUS       MOSUNNY   66  38  35 SW14      30.25F
OSU AIRPORT    SUNNY     65  38  36 SW6       30.25F
BOLTON FIELD   SUNNY     64  39  39 SW10      30.26F
RICKENBACK AFB SUNNY     65  39  39 SW12      30.26S
NEWARK         SUNNY     66  36  32 SW9       30.25F
MARION         SUNNY     65  37  35 SW12      30.24F
LANCASTER      SUNNY     64  40  41 W8        30.27F
ZANESVILLE     SUNNY     64  38  38 VRB6      30.26F
NEW PHILLY     NOT AVBL
$$




USA.gov is the U.S. government's official web portal to all federal, state and local government web resources and services.